Location: Gleizolles
(44.4833°N, 6.7667°E)
Time: 01:14:04
(UTC+00:00)

Vanguard 2 Rocket - Pass Details

Date: 17 June 2024
Orbit: 555 x 3302 km, 32.9° (Epoch: 24 July)

Event Time Altitude Azimuth Distance (km) Brightness Sun altitude
Rises 03:23:20 0° 232° (SW) 7,244 - -4.3°
Exits shadow 03:25:35 - 230° (SW) 6,817 10.6 -4.0°
Reaches altitude 10° 03:28:33 10° 227° (SW) 6,252 10.5 -3.6°
Maximum altitude 03:46:33 45° 164° (SSE) 3,563 9.8 -1.0°
Drops below altitude 10° 03:59:36 10° 97° (E) 4,640 11.4 0.9°
Sets 04:02:48 0° 91° (E) 5,313 11.9 1.4°
